Home   Weather   Piešťany   Past weeks

Flag for Slovakia Past Weather in Piešťany, Slovakia — Yesterday and Last 2 Weeks

Now
28 °F

Clear.


Feels Like: 17 °F
Forecast: 8 / 24 °F
Wind: 14 mph from North

Location: Piestany

Current Time: Jan 17, 2017 at 8:24:19 pm

Latest Report: Jan 17, 2017 at 7:30 pm


Visibility: 10 mi

Pressure: 30.42 "Hg

Humidity: 64%

Dew Point: 18 °F

Location of PiešťanyLocation

Past Weather in Piešťany — Graph

°F

Piešťany Temperature Yesterday

Maximum temperature yesterday: 25 °F (at 1:00 pm)
Minimum temperature yesterday: 7 °F (at 3:00 am)
Average temperature yesterday: 17 °F

High & Low Weather Summary for the Past Weeks

 TemperatureHumidityPressure
High37 °F (Jan 4, 1:30 pm)100% (Jan 2, 7:30 pm)30.57 "Hg (Jan 2, 7:30 pm)
Low-2 °F (Jan 7, 6:00 am)53% (Jan 8, 3:30 pm)29.45 "Hg (Jan 13, 11:00 pm)
Average21 °F77%30.07 "Hg
* Reported Jan 2 7:00 pm — Jan 17 7:00 pm, Piešťany, Weather by CustomWeather, © 2017

Note: Actual official high and low records may vary slightly from our data, if they occured in-between our weather recording intervals... More about our weather records

Advertising

Piešťany Weather History for the Previous 24 Hours

Scroll right to see more
 ConditionsComfort  
Time TempWeatherWind HumidityBarometerVisibility
7:00 pm
Tue, Jan 17
28 °FClear.17 mph64%30.42 "Hg10 mi
6:30 pm28 °FClear.17 mph64%30.42 "Hg10 mi
6:00 pm28 °FClear.15 mph64%30.39 "Hg10 mi
5:30 pm28 °FClear.15 mph64%30.39 "Hg10 mi
5:00 pm28 °FClear.16 mph64%30.39 "Hg10 mi
4:30 pm30 °FClear.15 mph59%30.39 "Hg10 mi
4:00 pm30 °FSunny.16 mph64%30.36 "Hg10 mi
3:30 pm32 °FSunny.17 mph60%30.36 "Hg10 mi
3:00 pm32 °FSunny.18 mph60%30.36 "Hg10 mi
2:30 pm32 °FSunny.17 mph60%30.36 "Hg10 mi
2:00 pm32 °FSunny.17 mph60%30.36 "Hg10 mi
1:30 pm32 °FSunny.16 mph60%30.36 "Hg10 mi
1:00 pm32 °FSunny.17 mph60%30.36 "Hg10 mi
12:30 pm32 °FSunny.18 mph60%30.36 "Hg10 mi
12:00 pm32 °FSunny.18 mph60%30.36 "Hg10 mi
11:30 am30 °FSunny.17 mph64%30.36 "Hg10 mi
11:00 am30 °FSunny.15 mph64%30.36 "Hg10 mi
10:30 am30 °FSunny.14 mph64%30.36 "Hg10 mi
10:00 am28 °FSunny.15 mph69%30.33 "Hg10 mi
9:30 am28 °FSunny.15 mph69%30.33 "Hg10 mi
9:00 am25 °FSunny.15 mph74%30.33 "Hg10 mi
8:30 am23 °FSunny.14 mph80%30.33 "Hg10 mi
8:00 am21 °FSunny.12 mph80%30.30 "Hg10 mi
7:30 am23 °FClear.13 mph74%30.30 "Hg10 mi
7:00 am23 °FClear.12 mph80%30.30 "Hg10 mi
6:30 am23 °FClear.12 mph80%30.27 "Hg10 mi
6:00 am23 °FClear.13 mph80%30.27 "Hg10 mi
5:30 am23 °FOvercast.12 mph80%30.27 "HgN/A
5:00 am21 °FOvercast.14 mph86%30.27 "HgN/A
4:30 am18 °FOvercast.12 mph93%30.27 "HgN/A
4:00 am14 °FOvercast.5 mph92%30.27 "HgN/A
3:30 am14 °FMostly cloudy.5 mph92%30.27 "HgN/A
3:00 am14 °FOvercast.7 mph85%30.27 "HgN/A
2:30 am16 °FOvercast.8 mph86%30.27 "HgN/A
2:00 am18 °FOvercast.8 mph93%30.27 "HgN/A
1:30 am16 °FOvercast.6 mph93%30.27 "HgN/A
1:00 am16 °FOvercast.6 mph93%30.24 "HgN/A
12:30 am16 °FOvercast.5 mph93%30.24 "Hg6 mi
12:00 am16 °FCold.6 mph93%30.24 "Hg5 mi
11:30 pm
Mon, Jan 16
18 °FCold.5 mph93%30.24 "Hg5 mi
11:00 pm19 °FPartly cloudy.3 mph93%30.24 "Hg6 mi
10:30 pm23 °FOvercast.6 mph93%30.24 "HgN/A
10:00 pm21 °FOvercast.3 mph93%30.21 "Hg4 mi
9:30 pm21 °FOvercast.7 mph93%30.21 "Hg4 mi
9:00 pm21 °FClear.6 mph93%30.21 "Hg5 mi
8:30 pm19 °FClear.5 mph93%30.21 "Hg4 mi
8:00 pm18 °FClear.1 mph93%30.21 "Hg4 mi
Weather by CustomWeather, © 2017

See weather overviewHow to use our weather pages